Location: Asheville, NC
(35.6000°N, 82.5500°W)
Time: 14:53:29
(UTC-05:00)

Vanguard 3 - Pass Details

Date: 13 December 2017
Orbit: 508 x 3264 km, 33.4° (Epoch: 17 January)

Event Time Altitude Azimuth Distance (km) Brightness Sun altitude
Rises 15:59:39 0° 272° (W) 2,596 10.6 12.3°
Reaches altitude 10° 16:01:43 10° 266° (W) 1,722 9.9 12.0°
Maximum altitude 16:05:19 52° 189° (S) 706 7.5 11.4°
Drops below altitude 10° 16:09:58 10° 113° (ESE) 2,223 9.2 10.7°
Sets 16:12:59 0° 109° (ESE) 3,468 10.1 10.2°
